Weather History for Thermal, CA

Change the Weather History Date:

Friday, February 8, 2013

  Actual Average Record
Temperature  
Mean Temperature 60 °F 57 °F  
Max Temperature 65 °F 74 °F 89 °F (1996)
Min Temperature 55 °F 40 °F 26 °F (1997)
Degree Days  
Heating Degree Days 5 8  
Month to date heating degree days 30 71  
Since 1 July heating degree days 857 931  
Cooling Degree Days 0 0  
Month to date cooling degree days 0 0  
Year to date cooling degree days 0 2  
Moisture  
Dew Point 33 °F    
Average Humidity 37    
Maximum Humidity 47    
Minimum Humidity 27    
Precipitation  
Precipitation 0.00 in 0.02 in 0.70 in (1976)
Month to date precipitation T 0.16  
Year to date precipitation 0.37 0.83  
Since 1 July precipitation 2.55 2.21  
Snow  
Snow 0.00 in - - ()
Month to date snowfall 0.0  
Year to date snowfall 0.0  
Since 1 July snowfall 0.0  
Snow Depth 0.00 in    
Sea Level Pressure  
Sea Level Pressure 29.85 in    
Wind  
Wind Speed 20 mph (NW)    
Max Wind Speed 33 mph    
Max Gust Speed 45 mph    
Visibility 8 miles    
Events      
T = Trace of Precipitation, MM = Missing Value Source: NWS Daily Summary

Daily Weather History Graph

Daily Weather History Graph

Search for Another Location

Airport:

Trip Planner

Search our weather history database for the weather conditions in past years. The results will help you decide how hot, cold, wet, or windy it might be!

Date:

Astronomy

Feb. 08, 2013 Rise Set
Actual Time 6:35 AM PST 5:22 PM PST
Civil Twilight 6:09 AM PST 5:48 PM PST
Nautical Twilight 5:39 AM PST 6:18 PM PST
Astronomical Twilight 5:10 AM PST 6:47 PM PST
Moon 5:05 AM PST (2/8) 4:02 PM PST (2/8)
Length of Visible Light 11h 39m
Length of Day
10h 47m
Waning Crescent, 3% of the Moon is Illuminated
Feb 8
Waning Crescent
Feb 9
New
Feb 17
First Quarter
Feb 25
Full
Mar 4
Last Quarter

Hourly Weather History & Observations

Time (PST) Temp. Windchill Dew Point Humidity Pressure Visibility Wind Dir Wind Speed Gust Speed Precip Events Conditions
12:30 AM 60.8 °F - 35.6 °F 39% 29.85 in 8.0 mi NW 12.7 mph 21.9 mph N/A   Mostly Cloudy
12:37 AM 59.0 °F - 35.6 °F 42% 29.85 in 9.0 mi NW 15.0 mph - N/A   Mostly Cloudy
12:45 AM 59.0 °F - 35.6 °F 42% 29.85 in 10.0 mi NNW 17.3 mph - N/A   Scattered Clouds
12:52 AM 57.9 °F - 37.0 °F 46% 29.85 in 10.0 mi North 8.1 mph - N/A   Partly Cloudy
1:33 AM 59.0 °F - 33.8 °F 39% 29.84 in 2.5 mi West 28.8 mph 42.6 mph N/A   Haze
1:41 AM 59.0 °F - 33.8 °F 39% 29.84 in 1.8 mi WNW 24.2 mph 42.6 mph N/A   Haze
1:43 AM 59.0 °F - 33.8 °F 39% 29.84 in 3.0 mi WNW 21.9 mph 41.4 mph N/A   Haze
1:52 AM 59.0 °F - 33.1 °F 38% 29.84 in 6.0 mi West 23.0 mph 38.0 mph N/A   Haze
2:14 AM 59.0 °F - 32.0 °F 36% 29.83 in 2.5 mi WNW 29.9 mph 41.4 mph N/A   Haze
2:28 AM 59.0 °F - 32.0 °F 36% 29.83 in 3.0 mi WNW 25.3 mph 44.9 mph N/A   Haze
2:52 AM 59.0 °F - 30.9 °F 35% 29.83 in 6.0 mi WNW 24.2 mph 39.1 mph N/A   Haze
3:52 AM 59.0 °F - 30.9 °F 35% 29.84 in 10.0 mi WNW 13.8 mph 28.8 mph N/A   Clear
4:52 AM 57.0 °F - 32.0 °F 39% 29.84 in 10.0 mi WNW 23.0 mph 38.0 mph N/A   Clear
5:52 AM 55.9 °F - 30.9 °F 39% 29.86 in 10.0 mi NW 21.9 mph 35.7 mph N/A   Clear
6:52 AM 55.0 °F - 32.0 °F 42% 29.87 in 5.0 mi WNW 25.3 mph 41.4 mph N/A   Haze
7:52 AM 55.9 °F - 30.0 °F 37% 29.88 in 7.0 mi NW 26.5 mph 40.3 mph N/A   Clear
8:52 AM 57.9 °F - 30.9 °F 36% 29.90 in 10.0 mi WNW 19.6 mph 32.2 mph N/A   Clear
9:52 AM 61.0 °F - 28.9 °F 30% 29.90 in 10.0 mi WNW 16.1 mph 25.3 mph N/A   Clear
10:52 AM 62.1 °F - 30.0 °F 30% 29.89 in 10.0 mi WNW 12.7 mph 23.0 mph N/A   Clear
11:52 AM 62.1 °F - 28.0 °F 28% 29.87 in 10.0 mi WNW 17.3 mph 31.1 mph N/A   Partly Cloudy
12:52 PM 61.0 °F - 30.0 °F 31% 29.83 in 10.0 mi NW 9.2 mph - N/A   Partly Cloudy
1:52 PM 59.0 °F - 33.1 °F 38% 29.86 in 8.0 mi NNW 28.8 mph 36.8 mph N/A   Mostly Cloudy
2:52 PM 55.9 °F - 35.1 °F 45% 29.85 in 10.0 mi NNW 25.3 mph 33.4 mph N/A   Partly Cloudy
3:52 PM 55.0 °F - 35.1 °F 47% 29.85 in 10.0 mi NNW 18.4 mph - N/A   Partly Cloudy
4:52 PM 51.1 °F - 36.0 °F 56% 29.86 in 10.0 mi NNW 15.0 mph - N/A   Clear
5:52 PM 51.1 °F - 35.1 °F 54% 29.86 in 10.0 mi North 11.5 mph - N/A   Clear
6:52 PM 50.0 °F - 35.1 °F 57% 29.84 in 10.0 mi North 10.4 mph - N/A   Clear
7:52 PM 46.9 °F - 34.0 °F 61% 29.85 in 10.0 mi WNW 6.9 mph - N/A   Clear
8:52 PM 45.0 °F 42.6 °F 34.0 °F 65% 29.85 in 10.0 mi NW 4.6 mph - N/A   Clear
9:52 PM 44.1 °F - 34.0 °F 68% 29.86 in 10.0 mi Calm Calm - N/A   Partly Cloudy
10:52 PM 39.9 °F 36.7 °F 32.0 °F 73% 29.86 in 10.0 mi SW 4.6 mph - N/A   Clear
11:52 PM 41.0 °F - 33.1 °F 73% 29.86 in 10.0 mi Calm Calm - N/A   Clear